Leadville, CO

7:12 AM MST on December 18, 2017 (GMT -0700)
Lake County

Weather History for KLXV - October, 2010

Change the Weather History Date:

Wednesday, October 13, 2010

  Actual Average Record
Temperature  
Mean Temperature 39 °F -  
Max Temperature 56 °F 51 °F 68 °F (1989)
Min Temperature 22 °F 24 °F 5 °F (1986)
Degree Days  
Heating Degree Days 26 28  
Month to date heating degree days 281 334  
Since 1 July heating degree days 1336 1632  
Cooling Degree Days 0 0  
Month to date cooling degree days 0 0  
Year to date cooling degree days 0 0  
Moisture  
Dew Point 24 °F    
Average Humidity 61    
Maximum Humidity 100    
Minimum Humidity 22    
Precipitation  
Precipitation 0.00 in 0.03 in 0.18 in (2004)
Month to date precipitation 0.39 0.38  
Year to date precipitation 11.17 10.41  
Snow  
Snow 0.00 in - - ()
Month to date snowfall 0.0  
Snow Depth 0.00 in    
Sea Level Pressure  
Sea Level Pressure 30.44 in    
Wind  
Wind Speed 6 mph (NE)    
Max Wind Speed 16 mph    
Max Gust Speed 24 mph    
Visibility 5 miles    
Events Fog    
T = Trace of Precipitation, MM = Missing Value Source: NWS Daily Summary

Daily Weather History Graph

Daily Weather History Graph

Search for Another Location

Airport or City:

Trip Planner

Search our weather history database for the weather conditions in past years. The results will help you decide how hot, cold, wet, or windy it might be!

Date:

Astronomy

Oct. 13, 2010 Rise Set
Actual Time 7:13 AM MDT 6:29 PM MDT
Civil Twilight 6:46 AM MDT 6:56 PM MDT
Nautical Twilight 6:15 AM MDT 7:27 PM MDT
Astronomical Twilight 5:44 AM MDT 7:58 PM MDT
Moon 1:33 PM MDT (10/13) 11:13 PM MDT (10/13)
Length of Visible Light 12h 10m
Length of Day
11h 16m
Waxing Crescent, 39% of the Moon is Illuminated
Oct 13
Waxing Crescent
Oct 14
First Quarter
Oct 22
Full
Oct 30
Last Quarter
Nov 5
New

Hourly Weather History & Observations

Time (MDT) Temp. Windchill Dew Point Humidity Pressure Visibility Wind Dir Wind Speed Gust Speed Precip Events Conditions
12:06 AM 30.2 °F - 30.2 °F 100% 30.55 in 7.0 mi Calm Calm - N/A   Overcast
12:34 AM 30.2 °F 26.7 °F 30.2 °F 100% 30.54 in 1.8 mi East 3.5 mph - N/A   Overcast
12:48 AM 30.2 °F - 30.2 °F 100% 30.55 in 0.5 mi Calm Calm - N/A Fog Light Freezing Fog
12:53 AM 30.9 °F - 30.0 °F 96% 30.32 in 0.8 mi Calm Calm - N/A   Overcast
1:03 AM 30.2 °F 26.7 °F 30.2 °F 100% 30.55 in 0.8 mi NE 3.5 mph - N/A   Overcast
1:25 AM 30.2 °F 24.3 °F 28.4 °F 93% 30.56 in 1.2 mi East 5.8 mph - N/A   Overcast
1:40 AM 30.2 °F 25.4 °F 28.4 °F 93% 30.56 in 0.5 mi East 4.6 mph - N/A Fog Light Freezing Fog
1:53 AM 30.0 °F 26.5 °F 28.9 °F 96% 30.31 in 0.5 mi East 3.5 mph - N/A Fog Light Freezing Fog
2:09 AM 28.4 °F - 28.4 °F 100% 30.55 in 1.0 mi Calm Calm - N/A   Overcast
2:16 AM 28.4 °F 24.6 °F 28.4 °F 100% 30.56 in 0.8 mi ENE 3.5 mph - N/A   Overcast
2:23 AM 28.4 °F - 28.4 °F 100% 30.56 in 1.2 mi Calm Calm - N/A   Overcast
2:48 AM 28.4 °F - 28.4 °F 100% 30.55 in 0.5 mi Calm Calm - N/A Fog Light Freezing Fog
2:53 AM 28.9 °F - 28.0 °F 96% 30.31 in 0.2 mi Calm Calm - N/A Fog Light Freezing Fog
3:00 AM 28.4 °F - 28.4 °F 100% 30.55 in 0.5 mi Calm Calm - N/A Fog Light Freezing Fog
3:53 AM 27.0 °F - 26.1 °F 96% 30.31 in 0.5 mi Calm Calm - N/A Fog Light Freezing Fog
4:14 AM 26.6 °F - 26.6 °F 100% 30.55 in 1.0 mi Calm Calm - N/A   Overcast
4:22 AM 26.6 °F - 26.6 °F 100% 30.56 in 0.5 mi Calm Calm - N/A Fog Light Freezing Fog
4:37 AM 26.6 °F - 26.6 °F 100% 30.56 in 2.0 mi Calm Calm - N/A   Mostly Cloudy
4:43 AM 26.6 °F - 26.6 °F 100% 30.56 in 10.0 mi Calm Calm - N/A   Mostly Cloudy
4:53 AM 26.1 °F 21.9 °F 24.1 °F 92% 30.34 in 10.0 mi East 3.5 mph - N/A   Mostly Cloudy
5:53 AM 25.0 °F - 23.0 °F 92% 30.39 in 10.0 mi Calm Calm - N/A   Clear
6:33 AM 24.8 °F - 21.2 °F 86% 30.57 in 2.5 mi Calm Calm - N/A   Partly Cloudy
6:36 AM 24.8 °F - 23.0 °F 93% 30.58 in 1.0 mi Calm Calm - N/A   Mist
6:43 AM 24.8 °F - 21.2 °F 86% 30.58 in 0.5 mi Calm Calm - N/A Fog Light Freezing Fog
6:51 AM 23.0 °F - 21.2 °F 93% 30.58 in 1.0 mi Calm Calm - N/A   Mostly Cloudy
6:53 AM 23.0 °F 18.4 °F 21.0 °F 92% 30.44 in 2.0 mi ESE 3.5 mph - N/A   Scattered Clouds
7:00 AM 21.2 °F 14.9 °F 19.4 °F 93% 30.58 in 10.0 mi East 4.6 mph - N/A   Scattered Clouds
7:53 AM 24.1 °F 19.7 °F 21.9 °F 91% 30.46 in 10.0 mi NE 3.5 mph - N/A   Clear
8:53 AM 30.0 °F 26.5 °F 26.1 °F 85% 30.43 in 10.0 mi ENE 3.5 mph - N/A   Clear
9:53 AM 37.0 °F - 26.1 °F 65% 30.39 in 10.0 mi Calm Calm - N/A   Clear
10:53 AM 44.1 °F - 23.0 °F 43% 30.32 in 10.0 mi Calm Calm - N/A   Clear
11:53 AM 46.9 °F - 21.0 °F 36% 30.29 in 10.0 mi ENE 3.5 mph - N/A   Clear
12:53 PM 51.1 °F - 18.0 °F 27% 30.26 in 10.0 mi North 11.5 mph - N/A   Clear
1:53 PM 53.1 °F - 19.0 °F 26% 30.23 in 10.0 mi North 10.4 mph 20.7 mph N/A   Clear
2:53 PM 55.0 °F - 18.0 °F 23% 30.22 in 10.0 mi NW 9.2 mph 19.6 mph N/A   Clear
3:53 PM 53.1 °F - 19.0 °F 26% 30.25 in 10.0 mi North 8.1 mph 18.4 mph N/A   Clear
4:53 PM 52.0 °F - 19.0 °F 27% 30.27 in 10.0 mi NNW 10.4 mph 17.3 mph N/A   Clear
5:53 PM 51.1 °F - 19.9 °F 29% 30.29 in 10.0 mi North 9.2 mph - N/A   Clear
6:53 PM 45.0 °F 41.2 °F 21.9 °F 40% 30.37 in 10.0 mi NNE 6.9 mph - N/A   Clear
7:53 PM 37.0 °F 33.3 °F 23.0 °F 57% 30.43 in 10.0 mi ENE 4.6 mph - N/A   Clear
8:53 PM 36.0 °F 29.6 °F 23.0 °F 59% 30.42 in 10.0 mi ENE 8.1 mph - N/A   Clear
9:53 PM 34.0 °F 27.2 °F 21.9 °F 61% 30.38 in 10.0 mi East 8.1 mph - N/A   Clear
10:53 PM 33.1 °F 25.5 °F 21.9 °F 64% 30.35 in 10.0 mi East 9.2 mph - N/A   Clear
11:53 PM 32.0 °F 24.2 °F 21.9 °F 66% 30.34 in 10.0 mi East 9.2 mph - N/A   Clear